{"data":{"norad_id":55012,"intl_designator":"2023-001D","name":"CONNECTA T1.2","alt_names":[],"object_type":"PAYLOAD","status":"ACTIVE","operator":null,"country":"TURK","launch_date":"2023-01-03","launch_site_code":"AFETR","launch_vehicle":null,"mission":null,"orbit_class":"UNKNOWN","rcs_meters":null,"size_class":null,"mass_kg":null,"dimensions":null,"purposes":[],"wikipedia_slug":null,"has_3d_model":false,"image_url":null,"decayed_at":null,"tle_current":{"epoch":"2026-05-25T02:54:02.530368Z","epoch_age_seconds":64705,"freshness":"FRESH","line1":"1 55012U 23001D   26145.12086262  .00039798  00000+0  73792-3 0  9990","line2":"2 55012  97.3281 215.4304 0006770 167.6835 192.4583 15.48845571188973","mean_motion":15.48845571,"eccentricity":0.000677,"inclination_deg":97.3281,"raan_deg":215.4304,"arg_perigee_deg":167.6835,"mean_anomaly_deg":192.4583,"bstar":0.00073792,"rev_number":18897,"period_min":92.97247104308,"perigee_km":415.49960066953,"apogee_km":424.70441628701,"semimajor_km":6798.2390084783,"source":"CELESTRAK","updated_at":"2026-05-25T13:37:58.809512Z"}}}